Weather History for Stuart, FL

Change the Weather History Date:

Saturday, October 6, 2012

  Actual Average Record
Temperature  
Mean Temperature 78 °F -  
Max Temperature 86 °F 86 °F 94 °F (1948)
Min Temperature 71 °F 70 °F 63 °F (1987)
Cooling Degree Days 14    
Growing Degree Days 28 (Base 50)    
Moisture  
Dew Point 73 °F    
Average Humidity 87    
Maximum Humidity 94    
Minimum Humidity 70    
Precipitation  
Precipitation 0.46 in - - ()
Sea Level Pressure  
Sea Level Pressure 29.96 in    
Wind  
Wind Speed 3 mph (SE)    
Max Wind Speed 15 mph    
Max Gust Speed 24 mph    
Visibility 9 miles    
Events Rain , Thunderstorm    
Averages and records for this station are not official NWS values.
T = Trace of Precipitation, MM = Missing Value Source: NWS Daily Summary

Daily Weather History Graph

Daily Weather History Graph

Search for Another Location

Airport:

Trip Planner

Search our weather history database for the weather conditions in past years. The results will help you decide how hot, cold, wet, or windy it might be!

Date:

Astronomy

Oct. 06, 2012 Rise Set
Actual Time 7:16 AM EDT 7:01 PM EDT
Civil Twilight 6:52 AM EDT 7:24 PM EDT
Nautical Twilight 6:25 AM EDT 7:51 PM EDT
Astronomical Twilight 5:58 AM EDT 8:18 PM EDT
Moon 11:38 PM EDT (10/6) 12:45 PM EDT (10/6)
Length of Visible Light 12h 31m
Length of Day
11h 44m
Waning Gibbous, 65% of the Moon is Illuminated
Oct 6
Waning Gibbous
Oct 8
Last Quarter
Oct 15
New
Oct 21
First Quarter
Oct 29
Full

Hourly Weather History & Observations

Time (EDT) Temp. Heat Index Dew Point Humidity Pressure Visibility Wind Dir Wind Speed Gust Speed Precip Events Conditions
12:15 AM 78.8 °F - 73.4 °F 83% 30.00 in 10.0 mi South 4.6 mph - N/A   Clear
12:35 AM 78.8 °F - 73.4 °F 83% 30.00 in 10.0 mi Calm Calm - N/A   Clear
12:55 AM 78.8 °F - 73.4 °F 83% 30.00 in 10.0 mi SE 3.5 mph - N/A   Clear
1:15 AM 77.0 °F - 73.4 °F 89% 29.99 in 10.0 mi South 3.5 mph - N/A   Clear
1:35 AM 78.8 °F - 73.4 °F 83% 29.98 in 10.0 mi Calm Calm - N/A   Clear
1:55 AM 78.8 °F - 73.4 °F 83% 29.97 in 10.0 mi Calm Calm - N/A   Clear
2:15 AM 78.8 °F - 73.4 °F 83% 29.96 in 10.0 mi Calm Calm - N/A   Clear
2:55 AM 77.0 °F - 73.4 °F 89% 29.95 in 10.0 mi Calm Calm - N/A   Clear
3:15 AM 77.0 °F - 73.4 °F 89% 29.95 in 10.0 mi Calm Calm - N/A   Clear
3:35 AM 77.0 °F - 73.4 °F 89% 29.94 in 10.0 mi Calm Calm - N/A   Clear
3:55 AM 77.0 °F - 73.4 °F 89% 29.94 in 10.0 mi Calm Calm - N/A   Clear
4:15 AM 77.0 °F - 73.4 °F 89% 29.94 in 10.0 mi Calm Calm - N/A   Scattered Clouds
4:35 AM 77.0 °F - 73.4 °F 89% 29.94 in 10.0 mi West 3.5 mph - N/A   Scattered Clouds
4:55 AM 77.0 °F - 73.4 °F 89% 29.93 in 10.0 mi Calm Calm - N/A   Clear
5:35 AM 77.0 °F - 73.4 °F 89% 29.94 in 10.0 mi Calm Calm - N/A   Scattered Clouds
5:55 AM 77.0 °F - 73.4 °F 89% 29.94 in 10.0 mi West 3.5 mph - N/A   Clear
6:15 AM 77.0 °F - 73.4 °F 89% 29.94 in 10.0 mi WNW 3.5 mph - N/A   Clear
6:47 AM 77.0 °F - 75.2 °F 94% 29.94 in 10.0 mi Calm Calm - N/A   Scattered Clouds
7:47 AM 75.2 °F - 73.4 °F 94% 29.97 in 10.0 mi Calm Calm - N/A   Scattered Clouds
8:47 AM 80.6 °F 87.1 °F 77.0 °F 89% 29.97 in 10.0 mi Calm Calm - N/A   Scattered Clouds
10:47 AM 84.2 °F 90.9 °F 73.4 °F 70% 29.97 in 7.0 mi Calm Calm - N/A   Mostly Cloudy
11:47 AM 84.2 °F 90.9 °F 73.4 °F 70% 29.97 in 7.0 mi NE 6.9 mph - N/A   Mostly Cloudy
12:47 PM 86.0 °F 95.1 °F 75.2 °F 70% 29.95 in 7.0 mi ENE 11.5 mph - N/A   Mostly Cloudy
2:47 PM 84.2 °F 92.3 °F 75.2 °F 74% 29.91 in 7.0 mi ENE 10.4 mph - N/A Thunderstorm Mostly Cloudy
3:47 PM 80.6 °F 86.2 °F 75.2 °F 84% 29.91 in 7.0 mi NE 8.1 mph - N/A Rain , Thunderstorm Light Thunderstorms and Rain
5:47 PM 82.4 °F 89.5 °F 75.2 °F 79% 29.92 in 7.0 mi NNE 5.8 mph - N/A Thunderstorm Mostly Cloudy
6:47 PM 78.8 °F - 73.4 °F 83% 29.92 in 7.0 mi Calm Calm - N/A Thunderstorm Mostly Cloudy
8:15 PM 77.0 °F - 75.2 °F 94% 29.94 in 10.0 mi Calm Calm - N/A Rain Light Rain
8:35 PM 77.0 °F - 73.4 °F 89% 29.94 in 10.0 mi Calm Calm - N/A Thunderstorm Thunderstorm
8:55 PM 77.0 °F - 73.4 °F 89% 29.95 in 10.0 mi NW 4.6 mph - N/A Thunderstorm Clear
9:15 PM 77.0 °F - 73.4 °F 89% 29.97 in 10.0 mi NE 15.0 mph 21.9 mph N/A Thunderstorm Mostly Cloudy
9:35 PM 73.4 °F - 71.6 °F 94% 29.99 in 3.0 mi East 12.7 mph 24.2 mph 0.12 in Rain , Thunderstorm Heavy Thunderstorms and Rain
9:55 PM 73.4 °F - 69.8 °F 88% 30.01 in 2.5 mi SSE 9.2 mph - 0.34 in Rain , Thunderstorm Heavy Thunderstorms and Rain
10:15 PM 71.6 °F - 69.8 °F 94% 30.00 in 5.0 mi WSW 3.5 mph - 0.07 in Rain , Thunderstorm Heavy Thunderstorms and Rain
10:35 PM 71.6 °F - 69.8 °F 94% 30.00 in 7.0 mi South 6.9 mph - 0.11 in Rain Light Rain
10:55 PM 71.6 °F - 69.8 °F 94% 29.97 in 10.0 mi SSE 6.9 mph - 0.12 in   Drizzle
11:15 PM 71.6 °F - 69.8 °F 94% 29.97 in 10.0 mi South 3.5 mph - N/A Rain Light Rain
11:35 PM 71.6 °F - 69.8 °F 94% 29.96 in 10.0 mi SW 4.6 mph - N/A   Clear
11:55 PM 71.6 °F - 69.8 °F 94% 29.94 in 10.0 mi Calm Calm - N/A   Clear